Weather History for Beaufort MCAS, SC

Change the Weather History Date:

Monday, July 8, 2013

  Actual Average Record
Temperature  
Mean Temperature 81 °F -  
Max Temperature 89 °F 89 °F 102 °F (2010)
Min Temperature 73 °F 72 °F 60 °F (1938)
Cooling Degree Days 16    
Growing Degree Days 31 (Base 50)    
Moisture  
Dew Point 72 °F    
Average Humidity 77    
Maximum Humidity 93    
Minimum Humidity 59    
Precipitation  
Precipitation 0.00 in - - ()
Sea Level Pressure  
Sea Level Pressure 30.17 in    
Wind  
Wind Speed 3 mph (South)    
Max Wind Speed 7 mph    
Max Gust Speed -    
Visibility 10 miles    
Events      
Averages and records for this station are not official NWS values.
T = Trace of Precipitation, MM = Missing Value Source: NWS Daily Summary

Daily Weather History Graph

Daily Weather History Graph

Search for Another Location

Airport:

Trip Planner

Search our weather history database for the weather conditions in past years. The results will help you decide how hot, cold, wet, or windy it might be!

Date:

Astronomy

Jul. 08, 2013 Rise Set
Actual Time 6:22 AM EDT 8:33 PM EDT
Civil Twilight 5:54 AM EDT 9:01 PM EDT
Nautical Twilight 5:20 AM EDT 9:35 PM EDT
Astronomical Twilight 4:43 AM EDT 10:12 PM EDT
Moon 6:45 AM EDT (7/8) 8:41 PM EDT (7/8)
Length of Visible Light 15h 06m
Length of Day
14h 10m
New Moon, 0% of the Moon is Illuminated
Jul 8
New Moon
Jul 15
First Quarter
Jul 22
Full
Jul 29
Last Quarter
Aug 6
New

Hourly Weather History & Observations

Time (EDT) Temp. Heat Index Dew Point Humidity Pressure Visibility Wind Dir Wind Speed Gust Speed Precip Events Conditions
12:03 AM 77.0 °F - 72.0 °F 84% 30.17 in 10.0 mi SW 3.5 mph - N/A   Scattered Clouds
12:56 AM 75.9 °F - 71.1 °F 85% 30.17 in 10.0 mi WSW 3.5 mph - N/A   Clear
1:56 AM 75.0 °F - 71.1 °F 87% 30.17 in 10.0 mi Calm Calm - N/A   Clear
2:30 AM 73.9 °F - 71.1 °F 91% 30.17 in 10.0 mi Calm Calm - N/A   Mostly Cloudy
2:46 AM 75.0 °F - 72.0 °F 90% 30.17 in 10.0 mi Calm Calm - N/A   Scattered Clouds
2:56 AM 75.0 °F - 72.0 °F 90% 30.17 in 10.0 mi Calm Calm - N/A   Clear
3:56 AM 73.9 °F - 72.0 °F 93% 30.16 in 7.0 mi Calm Calm - N/A   Clear
4:56 AM 73.9 °F - 72.0 °F 93% 30.17 in 10.0 mi Calm Calm - N/A   Mostly Cloudy
5:20 AM 75.0 °F - 72.0 °F 90% 30.17 in 10.0 mi Calm Calm - N/A   Scattered Clouds
5:56 AM 73.9 °F - 72.0 °F 93% 30.18 in 9.0 mi Calm Calm - N/A   Clear
6:56 AM 73.9 °F - 72.0 °F 93% 30.19 in 7.0 mi Calm Calm - N/A   Mostly Cloudy
7:56 AM 79.0 °F - 73.9 °F 84% 30.19 in 10.0 mi Calm Calm - N/A   Mostly Cloudy
8:56 AM 82.0 °F 87.9 °F 73.9 °F 76% 30.20 in 10.0 mi SW 3.5 mph - N/A   Mostly Cloudy
9:56 AM 82.9 °F 88.8 °F 73.0 °F 72% 30.20 in 10.0 mi SSW 3.5 mph - N/A   Mostly Cloudy
10:56 AM 84.9 °F 90.1 °F 71.1 °F 63% 30.20 in 10.0 mi SSE 4.6 mph - N/A   Mostly Cloudy
11:56 AM 86.0 °F 91.5 °F 71.1 °F 61% 30.20 in 10.0 mi South 4.6 mph - N/A   Clear
12:56 PM 87.1 °F 94.5 °F 73.0 °F 63% 30.20 in 10.0 mi SSE 3.5 mph - N/A   Mostly Cloudy
1:56 PM 89.1 °F 97.0 °F 73.0 °F 59% 30.19 in 10.0 mi Variable 3.5 mph - N/A   Mostly Cloudy
2:56 PM 88.0 °F 96.5 °F 73.9 °F 63% 30.17 in 10.0 mi SE 4.6 mph - N/A   Mostly Cloudy
3:56 PM 87.1 °F 94.5 °F 73.0 °F 63% 30.17 in 10.0 mi South 5.8 mph - N/A   Mostly Cloudy
4:56 PM 87.1 °F 95.4 °F 73.9 °F 65% 30.15 in 10.0 mi South 5.8 mph - N/A   Mostly Cloudy
5:56 PM 87.1 °F 93.6 °F 72.0 °F 61% 30.14 in 10.0 mi South 5.8 mph - N/A   Scattered Clouds
6:56 PM 84.0 °F 89.0 °F 71.1 °F 65% 30.14 in 10.0 mi South 6.9 mph - N/A   Mostly Cloudy
7:56 PM 82.0 °F 86.7 °F 72.0 °F 71% 30.14 in 10.0 mi South 6.9 mph - N/A   Mostly Cloudy
8:56 PM 81.0 °F 85.2 °F 72.0 °F 74% 30.15 in 10.0 mi South 5.8 mph - N/A   Mostly Cloudy
9:56 PM 81.0 °F 85.2 °F 72.0 °F 74% 30.18 in 10.0 mi SSW 5.8 mph - N/A   Scattered Clouds
10:56 PM 79.0 °F - 72.0 °F 79% 30.19 in 10.0 mi SSW 4.6 mph - N/A   Clear
11:56 PM 79.0 °F - 73.0 °F 82% 30.19 in 10.0 mi SSW 3.5 mph - N/A   Clear